User: anonymous   Login
Location: Unspecified
(0.0000°N, 0.0000°E)
Time: 00:07:38
(UTC+00:00)
Language:

PAYLOAD C - Orbit

View from above orbital plane
View from above orbital plane
View from above satellite
View from above satellite

Ground track
Ground track

The orbit data is extracted from the following two-line orbital elements,

1 27842U 03031C   17265.19998386  .00000028  00000-0  32137-4 0  9994
2 27842  98.6841 271.5305 0010078  45.8368 314.3636 14.22121672738253
Epoch (UTC): 22 September 2017 04:47:58
Eccentricity: 0.0010078
inclination: 98.6841°
perigee height: 811 km
apogee height: 825 km
right ascension of ascending node: 271.5305°
argument of perigee: 45.8368°
revolutions per day: 14.22121672
mean anomaly at epoch: 314.3636°
orbit number at epoch: 73825

The dashed part of the orbit path shows where the satellite is in the earth's shadow,  

DLR